Weather History for LGBL - October, 2011

Change the Weather History Date:

Wednesday, October 19, 2011

  Actual Average Record
Temperature  
Mean Temperature 54 °F -  
Max Temperature 68 °F - - ()
Min Temperature 41 °F - - ()
Degree Days  
Heating Degree Days 10    
Growing Degree Days 4 (Base 50)    
Moisture  
Dew Point 40 °F    
Average Humidity 64    
Maximum Humidity 87    
Minimum Humidity 35    
Precipitation  
Precipitation 0.00 in - - ()
Sea Level Pressure  
Sea Level Pressure 30.23 in    
Wind  
Wind Speed 5 mph ()    
Max Wind Speed 8 mph    
Max Gust Speed -    
T = Trace of Precipitation, MM = Missing Value Source: Averaged Metar Reports

Daily Weather History Graph

Daily Weather History Graph

Search for Another Location

Airport or City:

Trip Planner

Search our weather history database for the weather conditions in past years. The results will help you decide how hot, cold, wet, or windy it might be!

Date:

Astronomy

Oct. 19, 2011 Rise Set
Actual Time 7:42 AM EEST 6:45 PM EEST
Civil Twilight 7:14 AM EEST 7:12 PM EEST
Nautical Twilight 6:43 AM EEST 7:43 PM EEST
Astronomical Twilight 6:12 AM EEST 8:14 PM EEST
Moon No Moon Rise 1:59 PM EEST (10/19)
Length of Visible Light 11h 57m
Length of Day
11h 03m
Waning Gibbous, 58% of the Moon is Illuminated
Oct 19
Waning Gibbous
Oct 20
Last Quarter
Oct 26
New
Nov 2
First Quarter
Nov 10
Full

Hourly Weather History & Observations

Time (EEST) Temp. Windchill Dew Point Humidity Pressure Visibility Wind Dir Wind Speed Gust Speed Precip Events Conditions
12:50 AM 42.8 °F 38.6 °F 37.4 °F 81% 30.24 in - WSW 6.9 mph - N/A   Clear
1:50 AM 42.8 °F 38.6 °F 37.4 °F 81% 30.24 in - WSW 6.9 mph - N/A   Clear
2:50 AM 41.0 °F 35.8 °F 37.4 °F 87% 30.24 in - WSW 8.1 mph - N/A   Clear
3:50 AM 41.0 °F 37.1 °F 35.6 °F 81% 30.24 in - WSW 5.8 mph - N/A   Clear
4:50 AM 41.0 °F 36.4 °F 37.4 °F 87% 30.24 in - West 6.9 mph - N/A   Clear
5:50 AM 42.8 °F 38.0 °F 37.4 °F 81% 30.24 in - West 8.1 mph - N/A   Clear
6:20 AM 41.0 °F 37.1 °F 37.4 °F 87% 30.24 in - West 5.8 mph - N/A   Clear
6:50 AM 41.0 °F 36.4 °F 37.4 °F 87% 30.24 in - West 6.9 mph - N/A   Clear
7:20 AM 42.8 °F 40.1 °F 37.4 °F 81% 30.24 in - West 4.6 mph - N/A   Clear
7:50 AM 42.8 °F 38.6 °F 37.4 °F 81% 30.24 in - West 6.9 mph - N/A   Clear
8:20 AM 42.8 °F 39.3 °F 37.4 °F 81% 30.24 in - West 5.8 mph - N/A   Clear
8:50 AM 42.8 °F 39.3 °F 37.4 °F 81% 30.27 in - West 5.8 mph - N/A   Clear
9:20 AM 46.4 °F 43.5 °F 37.4 °F 71% 30.30 in - West 5.8 mph - N/A   Clear
9:50 AM 50.0 °F - 39.2 °F 66% 30.30 in - West 6.9 mph - N/A   Clear
10:20 AM 53.6 °F - 39.2 °F 58% 30.30 in - West 4.6 mph - N/A   Clear
10:50 AM 57.2 °F - 37.4 °F 48% 30.27 in - West 4.6 mph - N/A   Clear
11:20 AM 59.0 °F - 37.4 °F 45% 30.27 in - Calm Calm - N/A   Clear
11:50 AM 62.6 °F - 37.4 °F 39% 30.27 in - Calm Calm - N/A   Clear
1:20 PM 64.4 °F - 39.2 °F 40% 30.27 in - East 5.8 mph - N/A   Clear
1:50 PM 66.2 °F - 39.2 °F 37% 30.24 in - East 4.6 mph - N/A   Clear
2:20 PM 66.2 °F - 39.2 °F 37% 30.24 in - ESE 4.6 mph - N/A   Clear
2:50 PM 66.2 °F - 39.2 °F 37% 30.24 in - East 5.8 mph - N/A   Clear
3:20 PM 68.0 °F - 39.2 °F 35% 30.24 in - East 5.8 mph - N/A   Clear
3:50 PM 66.2 °F - 41.0 °F 40% 30.21 in - East 5.8 mph - N/A   Clear
4:20 PM 66.2 °F - 41.0 °F 40% 30.21 in - East 5.8 mph - N/A   Clear
4:50 PM 66.2 °F - 41.0 °F 40% 30.21 in - ESE 4.6 mph - N/A   Clear
5:20 PM 66.2 °F - 41.0 °F 40% 30.21 in - East 4.6 mph - N/A   Clear
5:50 PM 66.2 °F - 44.6 °F 46% 30.18 in - East 5.8 mph - N/A   Clear
6:20 PM 64.4 °F - 44.6 °F 49% 30.18 in - East 4.6 mph - N/A   Clear
6:50 PM 60.8 °F - 44.6 °F 55% 30.18 in - East 4.6 mph - N/A   Clear
7:20 PM 57.2 °F - 44.6 °F 63% 30.18 in - Calm Calm - N/A   Clear
7:50 PM 51.8 °F - 46.4 °F 82% 30.21 in - Calm Calm - N/A   Clear
8:20 PM 50.0 °F - 46.4 °F 87% 30.21 in - Calm Calm - N/A   Clear
8:50 PM 50.0 °F - 44.6 °F 82% 30.21 in - WSW 5.8 mph - N/A   Clear
9:50 PM 48.2 °F - 42.8 °F 82% 30.21 in - Calm Calm - N/A   Clear
10:50 PM 46.4 °F 42.9 °F 41.0 °F 81% 30.21 in - WSW 6.9 mph - N/A   Clear
11:50 PM 46.4 °F 43.5 °F 41.0 °F 81% 30.21 in - WSW 5.8 mph - N/A   Clear